Weather History for Vinton, IA

Change the Weather History Date:

Tuesday, October 15, 2013

  Actual Average Record
Temperature  
Mean Temperature 54 °F -  
Max Temperature 59 °F 64 °F 85 °F (1963)
Min Temperature 49 °F 41 °F 23 °F (1952)
Degree Days  
Heating Degree Days 11    
Growing Degree Days 4 (Base 50)    
Moisture  
Dew Point 45 °F    
Average Humidity 73    
Maximum Humidity 91    
Minimum Humidity 46    
Precipitation  
Precipitation 0.13 in - - ()
Sea Level Pressure  
Sea Level Pressure 29.84 in    
Wind  
Wind Speed 13 mph (SW)    
Max Wind Speed 20 mph    
Max Gust Speed 26 mph    
Visibility 9 miles    
Events Rain    
Averages and records for this station are not official NWS values.
T = Trace of Precipitation, MM = Missing Value Source: NWS Daily Summary

Daily Weather History Graph

Daily Weather History Graph

Search for Another Location

Airport:

Trip Planner

Search our weather history database for the weather conditions in past years. The results will help you decide how hot, cold, wet, or windy it might be!

Date:

Astronomy

Oct. 15, 2013 Rise Set
Actual Time 7:21 AM CDT 6:25 PM CDT
Civil Twilight 6:52 AM CDT 6:54 PM CDT
Nautical Twilight 6:20 AM CDT 7:26 PM CDT
Astronomical Twilight 5:47 AM CDT 7:58 PM CDT
Moon 4:34 PM CDT (10/15) 3:40 AM CDT (10/15)
Length of Visible Light 12h 01m
Length of Day
11h 04m
Waxing Gibbous, 88% of the Moon is Illuminated
Oct 15
Waxing Gibbous
Oct 18
Full
Oct 26
Last Quarter
Nov 3
New
Nov 9
First Quarter

Hourly Weather History & Observations

Time (CDT) Temp. Dew Point Humidity Pressure Visibility Wind Dir Wind Speed Gust Speed Precip Events Conditions
12:15 AM 57.2 °F 38.5 °F 50% 29.94 in 10.0 mi SE 13.8 mph 18.4 mph N/A   Mostly Cloudy
12:35 AM 57.2 °F 36.9 °F 47% 29.92 in 10.0 mi SE 12.7 mph 19.6 mph N/A   Scattered Clouds
12:55 AM 57.2 °F 36.5 °F 46% 29.91 in 10.0 mi SE 16.1 mph 26.5 mph N/A   Clear
1:15 AM 57.2 °F 37.0 °F 47% 29.91 in 10.0 mi SE 19.6 mph 26.5 mph N/A   Clear
1:35 AM 57.2 °F 37.8 °F 48% 29.90 in 10.0 mi SSE 19.6 mph 26.5 mph N/A   Clear
1:55 AM 57.2 °F 38.3 °F 49% 29.89 in 10.0 mi SE 18.4 mph 26.5 mph N/A   Clear
2:15 AM 57.2 °F 39.4 °F 51% 29.88 in 10.0 mi SSE 16.1 mph 21.9 mph N/A   Clear
2:35 AM 57.2 °F 40.6 °F 54% 29.88 in 10.0 mi SSE 12.7 mph 23.0 mph N/A   Scattered Clouds
2:55 AM 57.2 °F 43.9 °F 61% 29.91 in 10.0 mi South 10.4 mph 16.1 mph 0.01 in Rain Heavy Rain
3:15 AM 54.5 °F 48.9 °F 81% 29.90 in 5.0 mi South 10.4 mph 16.1 mph 0.07 in Rain Rain
3:35 AM 54.5 °F 50.7 °F 87% 29.88 in 5.0 mi SSE 13.8 mph 18.4 mph 0.10 in Rain Rain
3:55 AM 54.5 °F 51.4 °F 89% 29.84 in 7.0 mi SE 18.4 mph 24.2 mph 0.11 in Rain Rain
4:15 AM 54.5 °F 51.4 °F 89% 29.83 in 10.0 mi SSE 16.1 mph 25.3 mph N/A   Scattered Clouds
4:35 AM 54.5 °F 51.4 °F 89% 29.84 in 10.0 mi SSE 10.4 mph 23.0 mph N/A Rain Rain
4:55 AM 54.5 °F 51.3 °F 89% 29.81 in 10.0 mi SSE 13.8 mph 19.6 mph N/A Rain Rain
5:15 AM 54.5 °F 51.4 °F 89% 29.81 in 10.0 mi SSE 15.0 mph 21.9 mph N/A Rain Light Rain
5:35 AM 54.5 °F 51.4 °F 89% 29.83 in 7.0 mi South 9.2 mph 16.1 mph 0.01 in Rain Light Rain
5:55 AM 54.5 °F 51.8 °F 91% 29.82 in 7.0 mi SSE 9.2 mph - 0.01 in   Light Drizzle
6:15 AM 54.7 °F 52.0 °F 91% 29.81 in 7.0 mi SSE 9.2 mph - N/A   Overcast
6:35 AM 57.2 °F 54.5 °F 91% 29.81 in 7.0 mi South 10.4 mph 16.1 mph N/A   Overcast
6:55 AM 57.2 °F 54.5 °F 91% 29.80 in 7.0 mi South 10.4 mph - N/A   Overcast
7:15 AM 57.2 °F 54.5 °F 91% 29.80 in 7.0 mi South 11.5 mph 17.3 mph N/A Rain Light Rain
7:35 AM 57.2 °F 54.5 °F 91% 29.80 in 7.0 mi South 12.7 mph 18.4 mph N/A   Overcast
7:55 AM 57.9 °F 54.9 °F 90% 29.80 in 7.0 mi South 9.2 mph - N/A   Overcast
8:15 AM 59.5 °F 56.5 °F 90% 29.80 in 7.0 mi South 10.4 mph - N/A   Overcast
8:35 AM 57.0 °F 51.3 °F 81% 29.81 in 10.0 mi WSW 9.2 mph 18.4 mph N/A   Overcast
8:55 AM 54.5 °F 50.0 °F 85% 29.82 in 10.0 mi West 9.2 mph - N/A   Overcast
9:15 AM 54.5 °F 48.4 °F 80% 29.83 in 10.0 mi West 9.2 mph 16.1 mph N/A   Overcast
9:35 AM 54.5 °F 48.0 °F 79% 29.83 in 10.0 mi West 8.1 mph - N/A   Mostly Cloudy
9:55 AM 54.5 °F 48.2 °F 79% 29.83 in 10.0 mi WSW 9.2 mph - N/A   Overcast
10:15 AM 54.5 °F 47.3 °F 77% 29.83 in 10.0 mi WSW 8.1 mph - N/A   Overcast
10:35 AM 54.5 °F 46.9 °F 76% 29.83 in 10.0 mi WSW 10.4 mph - N/A   Overcast
10:55 AM 54.5 °F 45.5 °F 72% 29.83 in 10.0 mi West 10.4 mph - N/A   Mostly Cloudy
11:15 AM 54.5 °F 46.0 °F 73% 29.83 in 10.0 mi WSW 9.2 mph - N/A   Overcast
11:35 AM 54.5 °F 46.0 °F 73% 29.83 in 10.0 mi WSW 12.7 mph 18.4 mph N/A   Overcast
11:55 AM 54.5 °F 44.8 °F 70% 29.83 in 10.0 mi West 10.4 mph 19.6 mph N/A   Overcast
12:15 PM 54.5 °F 44.4 °F 69% 29.83 in 10.0 mi West 16.1 mph 23.0 mph N/A   Overcast
12:35 PM 54.5 °F 43.9 °F 67% 29.83 in 10.0 mi WSW 13.8 mph 21.9 mph N/A   Overcast
12:55 PM 54.5 °F 43.9 °F 67% 29.83 in 10.0 mi West 10.4 mph 23.0 mph N/A   Mostly Cloudy
1:15 PM 54.5 °F 42.4 °F 64% 29.82 in 10.0 mi WSW 12.7 mph 18.4 mph N/A   Overcast
1:35 PM 54.5 °F 42.8 °F 65% 29.82 in 10.0 mi WSW 11.5 mph 16.1 mph N/A   Overcast
1:55 PM 54.5 °F 41.2 °F 61% 29.82 in 10.0 mi WSW 15.0 mph 21.9 mph N/A   Mostly Cloudy
2:15 PM 54.5 °F 41.0 °F 60% 29.82 in 10.0 mi WSW 12.7 mph 21.9 mph N/A   Mostly Cloudy
2:35 PM 54.5 °F 40.1 °F 58% 29.82 in 10.0 mi WSW 16.1 mph 24.2 mph N/A   Mostly Cloudy
2:55 PM 54.5 °F 40.8 °F 60% 29.82 in 10.0 mi WSW 16.1 mph 26.5 mph N/A   Mostly Cloudy
3:15 PM 54.5 °F 41.5 °F 62% 29.83 in 10.0 mi WSW 17.3 mph 21.9 mph N/A   Mostly Cloudy
3:35 PM 54.5 °F 41.7 °F 62% 29.83 in 10.0 mi WSW 15.0 mph 18.4 mph N/A   Overcast
3:55 PM 54.5 °F 42.1 °F 63% 29.83 in 10.0 mi WSW 13.8 mph 23.0 mph N/A   Overcast
4:15 PM 52.0 °F 39.9 °F 63% 29.83 in 10.0 mi WSW 13.8 mph 23.0 mph N/A   Overcast
4:35 PM 52.0 °F 40.3 °F 64% 29.83 in 10.0 mi WSW 16.1 mph 20.7 mph N/A   Overcast
4:55 PM 52.0 °F 40.1 °F 64% 29.84 in 10.0 mi WSW 12.7 mph 24.2 mph N/A   Overcast
5:15 PM 52.0 °F 40.3 °F 64% 29.84 in 10.0 mi WSW 11.5 mph 19.6 mph N/A   Overcast
5:35 PM 52.0 °F 41.0 °F 66% 29.84 in 10.0 mi West 12.7 mph 18.4 mph N/A   Overcast
5:55 PM 50.9 °F 39.9 °F 66% 29.84 in 10.0 mi WSW 17.3 mph 25.3 mph N/A   Overcast
6:15 PM 50.2 °F 39.6 °F 67% 29.84 in 10.0 mi WSW 12.7 mph 21.9 mph N/A   Overcast
6:35 PM 49.5 °F 39.2 °F 68% 29.84 in 10.0 mi WSW 12.7 mph 24.2 mph N/A   Overcast
6:55 PM 49.5 °F 39.6 °F 69% 29.84 in 10.0 mi WSW 16.1 mph 23.0 mph N/A   Mostly Cloudy
7:15 PM 49.5 °F 40.1 °F 70% 29.85 in 10.0 mi WSW 11.5 mph 19.6 mph N/A   Mostly Cloudy
7:55 PM 49.5 °F 41.0 °F 73% 29.85 in 10.0 mi WSW 17.3 mph 24.2 mph N/A   Overcast
8:15 PM 49.5 °F 41.2 °F 73% 29.86 in 10.0 mi WSW 15.0 mph 21.9 mph N/A   Overcast
8:35 PM 49.5 °F 41.5 °F 74% 29.86 in 10.0 mi WSW 13.8 mph 19.6 mph N/A   Overcast
8:55 PM 49.5 °F 42.1 °F 76% 29.87 in 10.0 mi WSW 10.4 mph 21.9 mph N/A   Overcast
9:15 PM 49.5 °F 43.2 °F 79% 29.87 in 10.0 mi WSW 16.1 mph 19.6 mph N/A   Overcast
9:35 PM 49.5 °F 43.3 °F 79% 29.87 in 10.0 mi WSW 15.0 mph 20.7 mph N/A   Overcast
9:55 PM 49.5 °F 43.7 °F 81% 29.87 in 10.0 mi WSW 17.3 mph - N/A   Overcast
10:15 PM 49.5 °F 43.7 °F 81% 29.87 in 10.0 mi WSW 13.8 mph 20.7 mph N/A   Overcast
10:35 PM 49.5 °F 43.3 °F 79% 29.87 in 10.0 mi West 10.4 mph 21.9 mph N/A   Overcast
10:55 PM 49.5 °F 43.0 °F 78% 29.86 in 10.0 mi West 11.5 mph 21.9 mph N/A   Overcast
11:15 PM 49.5 °F 43.0 °F 78% 29.86 in 10.0 mi West 12.7 mph 16.1 mph N/A   Overcast
11:35 PM 49.5 °F 42.8 °F 78% 29.86 in 10.0 mi West 17.3 mph 23.0 mph N/A   Overcast
11:55 PM 49.5 °F 42.8 °F 78% 29.86 in 10.0 mi West 10.4 mph 19.6 mph N/A   Overcast